Weather History for KMDT - July, 2013

Change the Weather History Date:

Wednesday, July 17, 2013

  Actual Average Record
Temperature  
Mean Temperature 86 °F 76 °F  
Max Temperature 95 °F 86 °F 100 °F (1997)
Min Temperature 76 °F 67 °F 54 °F (1987)
Degree Days  
Heating Degree Days 0 0  
Month to date heating degree days 0 0  
Since 1 June heating degree days 2 18  
Since 1 July heating degree days 0 0  
Cooling Degree Days 21 11  
Month to date cooling degree days 251 185  
Year to date cooling degree days 558 463  
Since 1 June cooling degree days 475 398  
Growing Degree Days 35 (Base 50)    
Moisture  
Dew Point 68 °F    
Average Humidity 56    
Maximum Humidity 82    
Minimum Humidity 30    
Precipitation  
Precipitation 0.00 in 0.16 in 1.39 in (1949)
Month to date precipitation 1.68 2.55  
Year to date precipitation 17.61 21.68  
Sea Level Pressure  
Sea Level Pressure 30.16 in    
Wind  
Wind Speed 4 mph (NNW)    
Max Wind Speed 12 mph    
Max Gust Speed 17 mph    
Visibility 10 miles    
Events      
T = Trace of Precipitation, MM = Missing Value Source: NWS Daily Summary

Daily Weather History Graph

Daily Weather History Graph

Search for Another Location

Airport or City:

Trip Planner

Search our weather history database for the weather conditions in past years. The results will help you decide how hot, cold, wet, or windy it might be!

Date:

Astronomy

Jul. 17, 2013 Rise Set
Actual Time 5:52 AM EDT 8:34 PM EDT
Civil Twilight 5:20 AM EDT 9:05 PM EDT
Nautical Twilight 4:40 AM EDT 9:45 PM EDT
Astronomical Twilight 3:55 AM EDT 10:30 PM EDT
Moon 3:20 PM EDT (7/17) 12:57 AM EDT (7/17)
Length of Visible Light 15h 45m
Length of Day
14h 42m
Waxing Gibbous, 67% of the Moon is Illuminated
Jul 17
Waxing Gibbous
Jul 22
Full
Jul 29
Last Quarter
Aug 6
New
Aug 14
First Quarter

Hourly Weather History & Observations

Time (EDT) Temp. Heat Index Dew Point Humidity Pressure Visibility Wind Dir Wind Speed Gust Speed Precip Events Conditions
12:56 AM 81.0 °F 85.2 °F 72.0 °F 74% 30.19 in 10.0 mi Calm Calm - N/A   Mostly Cloudy
1:56 AM 78.1 °F - 70.0 °F 76% 30.18 in 10.0 mi NW 3.5 mph - N/A   Scattered Clouds
2:56 AM 79.0 °F - 71.1 °F 77% 30.17 in 10.0 mi Calm Calm - N/A   Scattered Clouds
3:56 AM 77.0 °F - 71.1 °F 82% 30.18 in 10.0 mi NNW 3.5 mph - N/A   Scattered Clouds
4:56 AM 77.0 °F - 71.1 °F 82% 30.19 in 10.0 mi NNW 3.5 mph - N/A   Scattered Clouds
5:56 AM 77.0 °F - 72.0 °F 84% 30.20 in 9.0 mi Calm Calm - N/A   Scattered Clouds
6:56 AM 78.1 °F - 72.0 °F 81% 30.22 in 8.0 mi NW 4.6 mph - N/A   Scattered Clouds
7:56 AM 80.1 °F 83.8 °F 72.0 °F 76% 30.22 in 9.0 mi NW 8.1 mph - N/A   Partly Cloudy
8:56 AM 82.9 °F 87.5 °F 71.1 °F 67% 30.23 in 10.0 mi WNW 5.8 mph - N/A   Clear
9:56 AM 87.1 °F 91.3 °F 69.1 °F 55% 30.23 in 10.0 mi West 4.6 mph - N/A   Clear
10:56 AM 88.0 °F 89.6 °F 64.9 °F 46% 30.22 in 10.0 mi North 4.6 mph - N/A   Clear
11:56 AM 90.0 °F 90.6 °F 63.0 °F 40% 30.20 in 10.0 mi NNW 8.1 mph - N/A   Clear
12:56 PM 91.0 °F 91.5 °F 62.1 °F 38% 30.19 in 10.0 mi Variable 4.6 mph - N/A   Clear
1:56 PM 91.9 °F 91.8 °F 61.0 °F 35% 30.17 in 10.0 mi NE 5.8 mph - N/A   Partly Cloudy
2:56 PM 93.0 °F 94.2 °F 63.0 °F 37% 30.15 in 10.0 mi Variable 3.5 mph - N/A   Partly Cloudy
3:56 PM 93.9 °F 94.8 °F 62.1 °F 35% 30.13 in 10.0 mi North 5.8 mph - N/A   Partly Cloudy
4:56 PM 93.9 °F 93.6 °F 60.1 °F 32% 30.12 in 10.0 mi NNE 5.8 mph - N/A   Partly Cloudy
5:56 PM 93.0 °F 91.7 °F 57.0 °F 30% 30.10 in 10.0 mi Variable 4.6 mph - N/A   Partly Cloudy
6:56 PM 93.0 °F 93.8 °F 62.1 °F 36% 30.08 in 10.0 mi ENE 4.6 mph - N/A   Partly Cloudy
7:56 PM 86.0 °F 93.0 °F 73.0 °F 65% 30.09 in 10.0 mi Calm Calm - N/A   Partly Cloudy
8:56 PM 82.0 °F 86.7 °F 72.0 °F 71% 30.10 in 10.0 mi Calm Calm - N/A   Partly Cloudy
9:56 PM 84.0 °F 89.0 °F 71.1 °F 65% 30.10 in 10.0 mi Calm Calm - N/A   Partly Cloudy
10:56 PM 81.0 °F 85.2 °F 72.0 °F 74% 30.11 in 10.0 mi WNW 5.8 mph - N/A   Mostly Cloudy
11:56 PM 80.1 °F 83.2 °F 70.0 °F 71% 30.10 in 10.0 mi Calm Calm - N/A   Partly Cloudy